一网星座-0463星 (ONEWEB-0463 )

导读 | 豆包AI

ONEWEB-0463是英国OneWeb公司旗下低轨宽带互联网卫星,于2022年2月10日发射,隶属于OneWeb规划的近650颗卫星星座组网项目。该卫星运行于低地球轨道,旨在为全球范围内用户提供高速低延迟的宽带互联网接入服务,推动全球宽带网络覆盖,尤其服务偏远地区网络连接需求,是OneWeb全球卫星互联网星座建设过程中的重要组成卫星。

基本信息
目录编号:
51650
目录名称:
ONEWEB-0463
国际标识:
2022-012AE
轨道中心:
EARTH
卫星名称:
一网星座-0463星
卫星全名:
一网星座-0463星 (ONEWEB-0463 )
卫星状态:
在轨 (已飞行1493 天)
发射日期:
2022-02-10 UTC
国别 :
英国 (GB)
星等 :
--
轨道信息
数据来源 国际轨道数据
星历时间: 2026-03-14T05:51:20+0800
8小时前
查看轨道信息
半长轴: 7571.849km
偏心率: 0.0001966
轨道倾角: 87.915°
近地点辐角 76.873°
升交点赤经 24.800°
平近点角 283.262°
近地点: 1192.223km
远地点: 1195.201km
周期: 109.286分钟
每日圈数: 13.176495
详细信息
平衡模式:
三轴稳定
覆盖范围:
全球
运营商:
一网卫星公司
运营商所在国:
英国
制造商(研发单位):
一网卫星公司
制造商所在国:
英国
使用方式:
暂无
卫星简介
OneWeb卫星网络由648颗重约125公斤的微型卫星组成,运行在1200公里的轨道上。 每颗卫星都能够提供至少每秒8千兆位的吞吐量,以使用其高吞吐量的Ku频段有效载荷为家庭和移动平台提供互联网接入。该卫星仍在工作。
2D轨道图
3D轨道图
轨道高度分析图
轨道倾角分析图
轨道综合分析图
查看轨道综合分析图